GFSNGP_con_sbcape_015.txt.gz
CAPE
0 3 7 0 0 0 0 0 3 4 53 62 96 94 33 7 5 0 0 195 866 1099 2330 2724 2519 2651 2527 2100 2269 1811 2401 2431 2942 3741 3980 4128 4119 4437 4395 3657 2711 1965 1760 1415
2 2 1 6 10 0 0 0 0 0 0 23 36 163 57 0 0 0 3 21 937 1220 1703 3066 3016 3326 3262 3071 3059 2789 3370 3204 3519 4338 4131 4172 4404 4527 4369 3764 2785 2092 1564 1118
5 24 77 77 1 2 7 8 0 0 0 0 9 53 57 16 7 0 1 67 250 1117 1533 2412 2500 3635 3523 3828 3418 3640 3969 4528 4299 4818 4753 4784 4624 4542 4130 3722 2411 1792 1311 737
61 174 215 0 78 31 20 32 35 24 2 0 9 11 24 0 1 59 187 235 176 963 1521 2558 2276 2394 3080 3080 4214 4333 4608 4476 4761 4835 5073 4932 4553 4347 3739 2676 1743 1703 1306 587
115 120 115 160 277 330 367 213 40 31 65 15 0 0 4 0 6 42 38 166 170 1198 1483 3009 2948 3527 3654 3475 3969 4236 4439 4584 4673 4739 4768 4779 4271 3805 2849 2050 1571 1072 828 521
262 139 241 302 495 224 384 161 67 209 217 51 11 10 0 0 0 7 255 233 362 1421 1681 2672 3228 2600 3233 2973 3309 3641 3906 3859 4359 4452 4606 4203 3782 3163 2827 2245 1420 795 570 353
188 239 180 661 275 282 384 311 960 774 747 509 196 6 3 404 10 66 471 456 1544 1925 2759 3292 2861 2643 3613 3404 3197 3024 2911 3007 3634 3816 4184 4108 3652 2891 2463 2136 1409 1008 554 659
243 177 193 432 469 468 845 893 969 975 854 812 791 20 571 847 851 909 897 1233 1825 2308 2468 2829 2986 3299 3752 3564 3535 3709 3708 3664 3754 4074 3356 3115 3084 2569 2033 1240 712 567 677 826
377 475 666 452 555 635 732 1067 1055 1080 1044 964 652 922 1027 1349 1596 1757 1804 1699 1759 2036 2295 2691 3120 3176 3710 4618 4303 4160 3959 4254 3999 3467 2721 2650 2371 1872 1391 895 592 586 729 1384
951 697 380 313 417 644 898 933 1191 1379 1171 1084 1253 1220 1291 1323 1368 1557 1756 1849 1921 2077 2249 3248 3616 3475 3606 3349 3481 3520 3739 2930 2683 2344 1862 1717 1652 1234 875 806 818 911 1069 1198
1009 517 408 218 240 352 337 435 724 626 743 1251 1356 1474 1452 1604 1312 1091 1064 1135 1471 1831 2059 2420 2687 2689 2731 2937 3178 3075 2183 1732 1554 1334 1407 726 165 404 821 52 340 1073 840 1107
730 508 528 57 5 1 1 0 12 44 36 147 367 389 541 863 1326 1276 1137 1151 1271 1580 1969 2418 2587 2684 2769 2915 2721 2375 2120 1744 1574 1409 713 390 39 2 0 0 2 0 0 92
406 268 0 0 0 0 0 0 0 0 0 0 0 0 0 2 47 54 671 1183 1323 1537 1791 2182 2248 2305 2396 2576 2507 2479 2157 2148 1569 1393 1125 1127 953 811 418 0 0 0 0 0
6 0 3 3 0 0 0 0 0 0 0 0 0 0 0 0 0 0 13 158 824 1645 1766 1766 1815 1916 1947 2153 2130 1843 1542 648 1012 990 785 615 526 380 316 160 31 1 0 0
17 10 18 8 0 0 0 0 0 0 0 0 0 0 0 0 0 0 0 0 0 333 1454 1682 1900 1635 1487 1773 1852 1589 1024 874 826 664 468 187 295 401 153 97 111 38 0 0
19 2 0 2 11 0 0 0 0 0 0 0 0 0 0 0 0 0 0 0 0 10 19 747 1825 1538 1592 1714 1489 1202 800 103 119 307 124 94 215 154 150 139 221 136 3 0
0 3 3 3 29 2 15 9 16 0 0 0 0 0 0 0 0 0 0 0 0 0 5 299 1254 1678 1364 1329 1013 538 357 149 0 179 106 280 313 264 180 181 192 261 113 18
26 24 4 19 46 47 30 16 49 47 12 0 0 0 0 0 5 2 7 2 334 151 495 403 1178 1575 1032 786 526 198 194 206 71 211 134 173 121 116 145 143 127 143 85 6
37 0 0 16 44 46 59 19 33 48 28 7 11 4 11 22 50 81 60 77 355 289 252 714 138 622 1051 524 317 333 205 113 139 111 200 62 143 193 177 161 165 154 65 9
44 46 22 26 26 25 26 50 48 40 43 36 30 24 40 37 46 156 144 157 328 267 337 339 485 675 704 323 27 253 148 118 152 409 287 310 146 133 301 20 102 87 20 68
29 27 16 4 9 34 39 25 10 55 37 64 66 103 38 45 71 168 232 88 200 179 296 73 282 277 173 37 51 199 138 176 136 211 116 138 143 120 120 84 50 28 16 34
27 23 23 22 28 28 33 52 77 153 96 79 134 135 65 149 109 99 140 104 79 2 75 129 64 0 46 0 130 92 62 42 49 82 92 76 71 73 80 81 50 43 49 49
31 27 23 38 47 41 31 19 6 42 84 93 88 60 55 58 117 111 125 111 88 20 21 6 0 0 0 10 43 32 32 4 2 2 1 0 0 2 6 12 15 15 35 46
51 62 87 57 50 46 29 12 7 0 2 82 45 34 14 42 32 51 59 0 1 1 6 0 0 0 0 4 1 3 6 2 1 1 2 0 0 0 0 1 5 13 19 4
135 253 222 135 46 48 47 22 47 25 26 163 101 88 138 47 43 19 51 19 0 1 4 0 0 0 0 6 41 30 33 28 21 12 8 4 2 0 0 0 0 8 20 24
43 57 71 68 42 44 51 63 51 34 44 46 50 55 49 50 53 34 131 29 42 38 33 128 63 29 33 34 44 38 49 57 28 17 0 1 4 8 2 2 0 0 1 3
12 1 19 23 14 4 4 5 23 20 30 5 4 44 51 63 71 40 21 71 57 35 50 51 51 34 53 65 54 40 59 51 25 32 31 30 22 14 11 9 3 0 0 1

GFSNGP_con_sbcape_021.txt.gz
CAPE
0 0 0 0 0 0 0 0 0 0 0 0 0 122 72 74 6 3 108 607 414 359 320 637 775 962 1200 1441 1666 2570 2900 2987 2747 2833 2914 2943 2876 3039 2505 2571 2243 1595 1177 871
0 0 0 0 0 0 0 0 0 0 0 0 0 152 147 88 48 1 0 643 611 455 359 386 542 764 1008 1373 1556 1761 2621 2757 2700 2553 2701 2677 2781 2781 3121 2502 2737 1848 1206 1102
0 0 0 0 0 0 0 0 0 0 0 0 0 0 212 305 55 0 13 505 529 601 935 531 667 809 1014 1250 1463 1633 1902 2518 2542 2456 2558 2593 2650 2695 3063 3059 3013 2680 1928 1199
0 3 11 0 0 0 0 1 0 0 0 0 0 0 0 0 0 0 36 216 770 989 1183 1509 986 877 1006 1074 1273 1420 1468 2024 2298 2378 2466 2665 2713 2931 2833 3238 3091 3051 2507 1488
0 0 0 0 0 0 0 0 6 76 17 52 14 0 0 0 0 0 0 0 30 669 1100 1233 1678 1213 979 972 1216 1180 1283 1450 2025 2237 2501 2555 2836 2804 3060 3006 3224 3191 2565 1713
0 0 0 0 0 4 266 127 697 488 384 246 90 32 68 631 448 272 3 0 0 0 332 1464 1248 1718 1309 1125 1145 1252 1222 1762 1908 2089 2354 2737 2914 2955 3090 3232 3259 2712 1762 1326
1 0 0 0 0 217 240 173 718 636 606 588 503 524 448 482 343 518 509 0 0 0 270 1378 1535 2221 1989 1498 1357 1693 1836 2072 2378 2724 2805 3108 3094 3267 3380 2683 1755 1337 1059 718
20 19 8 421 207 289 351 944 973 595 516 479 513 389 286 326 542 352 1090 988 143 0 1004 1810 1913 2424 2544 2625 2277 2010 3619 3194 4325 4111 4104 4123 3713 3027 2451 2001 1613 1075 677 373
78 664 567 947 941 847 1460 1461 1652 1642 1725 1781 1638 1385 1403 1997 1946 2151 2027 2628 3142 3203 3267 3175 2801 2899 2967 3782 3763 3852 3797 3970 4038 3636 3845 3196 2677 1988 1499 1420 1179 928 736 553
297 223 151 371 463 1149 753 700 597 974 1181 1135 626 585 729 1179 1793 2510 2747 2940 3074 3153 3608 3955 4040 3965 3981 3707 3623 3663 3693 3422 2744 2721 2315 2081 1752 1494 1200 917 795 617 478 476
185 305 101 763 916 623 446 153 168 54 37 184 155 81 183 333 1048 1651 2089 2590 3237 3808 3669 3641 3671 3719 3534 3550 3547 3016 2646 2187 1776 1338 578 0 1 339 662 209 545 707 611 562
206 7 5 13 15 51 42 30 2 0 0 0 0 0 0 0 17 412 1504 1663 1694 2652 3012 3268 3426 2976 2735 2772 2467 1956 1439 1168 619 552 124 1 0 0 0 0 0 77 140 387
120 1 0 0 0 0 0 0 0 0 0 0 0 0 0 0 0 0 8 1315 1971 1837 2110 2336 2499 2447 2175 1930 1699 1535 1099 728 570 463 333 138 10 0 0 0 0 0 0 0
4 0 0 0 0 0 0 0 0 0 0 0 0 0 0 0 0 0 0 150 1244 1775 1913 2135 2262 2276 1834 1654 1523 1325 933 632 579 451 422 244 61 0 0 0 0 0 0 0
0 0 4 1 0 0 0 0 0 0 0 0 0 0 0 0 0 0 0 142 601 1425 1407 1662 1907 2378 2286 2201 2007 1808 1143 922 769 579 504 512 390 39 0 0 0 0 0 0
0 0 0 0 0 0 0 0 0 0 0 0 0 0 0 0 0 0 1 155 225 754 1333 1431 1554 1746 1510 1199 1068 535 486 1382 1101 928 794 754 670 435 0 0 0 0 0 0
13 5 0 0 0 0 0 0 0 0 0 0 0 0 0 0 0 0 146 141 274 449 765 1106 1275 1441 1378 1327 1246 513 15 0 171 51 138 169 93 128 63 0 0 0 0 0
12 0 0 0 0 0 0 0 0 0 0 0 0 0 0 8 15 0 66 46 37 203 505 377 236 599 370 44 325 84 68 9 0 6 15 23 5 1 3 4 1 0 0 0
15 1 2 4 5 0 0 0 0 0 0 0 0 0 1 26 45 101 245 351 208 256 395 258 597 556 384 28 5 0 0 40 0 7 32 21 24 0 0 17 2 0 0 0
52 45 11 30 48 19 19 37 55 44 38 46 22 46 67 121 98 88 123 114 69 61 146 57 361 253 320 55 7 31 18 38 24 3 17 3 0 0 0 0 0 0 0 0
69 63 74 67 39 61 82 57 55 58 98 103 66 64 87 82 107 87 108 78 22 5 18 0 0 0 0 71 40 21 0 1 29 16 0 0 0 1 14 4 11 0 0 0
86 79 49 71 77 85 92 74 96 98 115 140 104 94 95 79 47 9 0 0 0 0 0 0 0 0 0 0 22 10 4 18 13 0 0 4 5 13 7 10 29 4 5 21
23 47 185 171 83 38 79 78 149 173 141 100 41 124 82 81 52 2 0 0 0 0 0 0 0 0 0 0 0 39 41 50 7 3 0 0 0 0 0 8 8 25 28 25
146 75 75 10 9 136 36 75 2 85 107 24 77 23 36 23 36 45 7 4 0 0 0 0 0 0 0 0 0 0 0 0 0 0 0 0 0 0 0 0 0 0 12 24
70 29 3 0 0 0 0 13 0 0 21 24 0 1 3 13 35 75 49 6 0 0 30 0 0 0 0 0 0 0 0 0 0 0 0 0 0 0 0 0 0 0 0 0
0 0 0 0 0 0 0 0 0 0 0 0 0 0 0 0 3 1 4 23 16 18 29 51 0 0 0 0 0 0 0 0 0 0 0 1 0 0 0 0 0 0 0 0
0 0 0 0 0 0 0 0 0 0 0 0 0 0 0 0 0 0 0 0 0 1 7 2 0 0 0 0 0 0 1 0 0 0 0 0 4 4 4 0 0 0 0 0

GFSNGP_con_sbcape_024.txt.gz
CAPE
0 0 0 0 0 0 0 0 0 0 0 0 0 0 0 0 0 0 0 17 51 140 141 398 567 644 1019 1615 2141 2299 2416 2465 2250 2154 2371 2624 2381 2037 1801 2101 1541 954 908 761
0 0 0 0 0 0 0 0 0 0 0 0 0 0 0 0 0 0 0 0 24 276 333 319 645 715 838 1417 2296 2415 2578 2619 2615 2515 2372 2389 2574 2508 2142 1942 2354 1213 878 829
0 0 0 0 0 0 0 0 0 0 0 0 0 0 0 0 0 0 0 8 11 209 310 513 766 851 842 1260 2068 2500 2611 2735 2697 2651 2637 2607 2554 2589 2682 2279 2033 1742 864 733
0 0 0 0 0 0 0 0 0 0 0 0 0 0 0 0 0 0 0 0 201 307 371 649 756 879 1065 1093 1568 2295 2465 2673 2781 2646 2602 2646 2681 2656 2601 2817 2295 2242 1483 971
0 0 0 0 0 0 0 0 0 0 0 0 0 0 0 0 0 0 0 0 45 291 347 359 399 580 857 1117 1402 1686 2063 2452 2653 2623 2495 2557 2546 2560 2550 2760 2810 2628 2436 1472
0 0 0 0 0 0 0 0 140 0 0 0 0 0 0 61 74 0 0 0 0 530 851 914 480 536 693 884 1295 1528 1793 1865 2455 2480 2402 2392 2512 2452 2566 2655 2868 2825 2716 1767
0 3 0 0 0 19 2 0 234 37 5 0 21 0 0 47 59 100 19 183 0 0 56 848 1140 721 651 759 928 1403 1618 1713 1871 2327 2315 2339 2374 2527 2581 2618 2716 2736 2316 1438
0 0 0 0 5 5 33 445 136 330 35 14 591 1665 1992 1566 1032 450 59 192 438 0 0 3 845 1170 878 712 814 1059 1221 1266 1305 1844 2127 2163 2297 2544 2515 2571 2376 1565 816 523
0 6 0 67 289 800 1039 1203 981 1079 924 1093 1273 1430 1778 2153 2248 2464 2459 2446 2355 319 0 0 627 1409 1246 946 902 895 1069 1044 1546 1672 1864 2306 2521 2722 2613 1999 1658 995 809 518
0 30 0 0 0 116 217 129 96 145 231 425 778 783 1280 1497 1792 2103 2185 2441 2551 2726 2326 2316 1804 1039 1335 1437 1175 1455 1615 1819 2621 2860 3071 2901 2744 2486 2092 1610 1099 800 639 429
3 7 15 0 0 0 0 0 0 0 0 0 6 18 86 154 479 1277 1854 1824 1948 2217 2363 2397 2418 2592 2762 2739 1990 2747 2999 3127 3152 2529 2056 751 29 704 894 420 753 637 535 283
85 14 0 2 0 0 0 0 0 0 0 0 0 0 0 0 0 31 897 1273 975 759 922 1117 1221 1753 2883 2818 2615 2355 2104 1299 743 230 1 1 1 1 4 1 0 225 291 53
28 5 1 0 0 0 0 0 0 0 0 0 0 0 0 0 0 0 357 876 961 854 968 1007 0 3 745 1528 1732 1728 1045 446 119 84 43 17 2 0 0 1 0 0 4 0
39 18 0 0 0 0 0 0 0 0 0 0 0 0 0 0 0 0 0 237 662 13 431 842 939 807 361 337 270 267 325 308 177 31 23 35 23 0 0 8 0 0 0 0
34 0 3 1 0 0 0 0 0 0 0 0 0 0 0 0 0 0 0 40 434 446 340 417 517 617 569 273 217 232 89 164 142 81 19 0 0 0 0 0 0 0 0 0
0 0 0 0 0 0 0 0 0 0 0 0 0 0 0 0 0 0 0 2 93 149 57 38 148 131 108 166 276 303 240 249 190 90 32 1 0 0 0 0 0 0 0 0
0 0 0 0 0 0 0 0 0 0 0 0 0 0 0 0 0 0 0 0 0 0 0 0 0 0 0 90 3 40 318 361 299 241 223 144 27 0 0 0 0 0 0 0
7 3 0 0 0 0 0 0 11 13 1 0 0 0 0 0 0 0 0 0 0 0 0 0 0 0 0 0 0 0 0 37 151 247 95 97 31 1 0 0 0 0 0 0
4 11 9 24 8 4 9 8 0 4 11 1 0 0 0 0 1 0 0 0 0 1 1 1 17 2 0 0 0 0 0 0 0 0 0 0 0 0 0 6 0 0 0 0
35 49 46 67 42 23 33 9 1 7 13 34 10 3 1 0 9 5 0 0 0 0 0 0 0 3 0 0 0 0 0 0 0 0 0 0 0 0 0 0 0 0 0 0
48 63 63 30 38 17 16 9 15 29 51 29 40 12 5 0 38 8 1 0 0 0 0 0 0 0 0 0 0 0 16 7 1 0 0 0 0 0 0 0 0 0 0 0
4 33 46 11 11 34 25 12 84 46 3 11 30 20 33 7 2 0 0 0 0 0 0 0 0 0 0 0 0 1 26 34 29 7 0 0 0 0 0 0 0 0 0 0
0 0 0 0 0 0 0 0 4 0 0 4 1 7 14 1 0 3 1 0 0 0 0 0 0 0 0 0 0 4 0 2 0 0 0 0 0 0 0 0 1 0 0 0
0 0 0 0 0 0 0 0 0 0 0 0 0 0 0 0 0 0 0 0 0 0 0 0 0 0 0 0 0 0 0 0 0 0 0 0 0 0 0 0 0 0 0 0
0 0 0 0 0 0 0 0 0 0 0 0 0 0 0 0 0 0 0 0 0 0 0 0 0 0 0 0 0 0 0 0 0 0 0 0 0 0 0 0 0 0 0 2
0 0 0 0 0 0 0 0 0 0 0 0 0 0 0 0 0 0 0 0 0 0 0 0 0 0 0 0 0 0 0 0 0 0 0 0 0 0 0 0 0 0 0 0
0 0 0 0 0 0 0 0 0 0 0 0 0 0 0 0 0 0 0 0 0 0 0 0 0 0 0 0 0 0 0 0 0 0 0 0 0 0 0 0 0 0 0 0

GFSNGP_con_sbcape_030.txt.gz
CAPE
0 0 0 0 0 0 0 0 0 0 0 0 0 0 0 0 0 0 0 0 0 0 0 0 0 8 31 172 371 556 637 725 879 900 932 984 1068 1158 1190 1115 829 485 490 533
0 0 0 0 0 0 0 0 0 0 0 0 0 0 0 0 0 0 0 0 0 0 0 0 0 28 109 340 556 775 789 859 971 1067 1067 1080 1059 1032 1123 1280 1259 742 600 588
0 0 0 0 0 0 0 0 0 0 0 0 0 0 0 0 0 0 0 0 0 0 0 0 0 38 169 471 788 939 955 1024 1164 1236 1308 1353 1365 1271 1141 1171 1313 1141 916 784
0 0 0 0 0 0 0 0 0 0 0 0 0 0 0 0 0 0 0 0 0 0 0 0 0 0 209 426 907 1138 1148 1186 1428 1503 1490 1536 1580 1529 1424 1303 1282 1378 1187 1066
0 0 0 0 0 0 0 0 0 0 0 0 0 0 0 0 0 0 0 0 0 0 0 0 0 0 162 434 840 1356 1409 1422 1598 1730 1716 1732 1822 1853 1759 1588 1442 1466 1381 1181
0 0 0 0 0 0 0 0 0 0 0 0 0 0 0 0 0 0 0 0 0 0 0 0 0 14 171 428 922 1294 1727 1746 1802 1797 1714 1682 1810 1990 2053 1985 1835 1685 1730 1499
0 0 0 0 0 0 0 0 0 0 0 0 0 0 0 0 0 0 0 0 0 0 0 0 0 110 321 440 853 1278 1655 1882 1951 1977 1949 1817 1792 1859 1951 2153 2155 1954 1861 1696
0 0 0 0 0 2 0 0 0 0 0 0 0 0 0 0 1 81 748 1434 394 308 224 0 0 233 419 522 795 1064 1586 1821 1962 2118 2202 2159 2162 2125 2098 2180 2296 2352 2208 1977
0 0 0 0 0 0 0 0 0 1 0 0 0 33 641 1330 1540 1650 1906 1853 1513 1657 1806 1758 144 0 73 22 451 787 1005 1563 1973 2142 2369 2395 2393 2246 2213 2332 2434 2426 2332 2210
17 0 0 52 0 0 0 0 0 0 1 109 723 729 809 1039 967 826 892 1611 1573 1407 884 742 572 377 467 830 1260 329 715 963 1301 1870 2223 2457 2384 2320 2271 2381 2444 2443 2461 2315
5 0 113 41 0 0 0 0 0 0 0 0 0 1 25 45 199 279 188 71 85 7 0 0 0 0 0 0 345 924 242 336 803 1226 1493 2235 1279 1345 2358 2369 2350 2446 2399 2233
0 0 96 17 0 0 13 0 1 0 0 0 0 0 0 0 0 4 0 0 33 292 356 28 0 0 0 0 0 136 1127 1184 771 980 501 12 25 0 1 524 1315 1123 566 317
7 88 142 35 0 0 0 0 0 0 0 0 0 0 2 6 2 21 87 131 114 199 166 191 255 17 0 0 0 6 210 291 162 126 140 152 317 171 0 0 2 2 6 2
97 180 326 80 3 1 0 0 0 0 0 0 0 0 9 1 2 38 17 77 83 56 68 275 250 25 402 77 16 0 0 85 207 130 351 352 459 187 11 6 54 0 1 0
22 269 116 7 0 0 0 0 0 0 0 0 0 0 3 6 1 2 1 0 0 0 0 0 25 36 275 27 0 2 0 15 326 420 225 106 53 2 1 4 3 2 5 2
138 55 2 2 1 0 0 0 0 0 0 0 0 0 0 0 0 0 1 1 0 1 0 0 0 0 0 154 25 0 0 25 72 1 0 4 0 1 1 1 2 0 1 1
1 3 2 1 1 0 1 0 0 0 14 0 0 0 0 0 0 0 0 0 0 0 0 0 0 0 0 0 75 67 76 6 0 2 1 1 2 6 2 2 2 2 1 0
7 5 1 0 0 0 0 0 1 1 0 0 0 0 0 0 0 0 0 0 0 0 0 0 0 0 0 0 0 18 10 18 10 7 5 9 1 1 2 1 1 0 1 0
40 64 56 29 8 6 3 3 2 11 3 0 0 0 0 0 0 0 0 0 0 0 0 0 0 0 0 0 0 0 0 0 0 1 0 0 1 0 0 0 0 2 0 0
64 27 2 0 0 0 0 0 10 2 0 0 0 0 0 0 0 0 0 0 0 0 0 0 0 0 0 0 0 0 0 0 0 0 0 0 0 0 0 0 0 0 0 0
0 0 0 0 0 0 0 0 2 0 0 0 0 0 0 0 0 0 0 0 0 0 0 0 0 0 0 0 0 0 0 0 0 0 0 0 0 0 0 0 0 0 0 0
0 0 0 0 0 0 0 0 0 0 0 0 0 0 0 0 0 0 0 0 0 0 0 0 0 0 0 0 0 0 0 0 0 0 0 0 0 0 0 0 0 0 0 0
0 0 0 0 0 0 0 0 0 0 0 0 0 0 0 0 0 0 0 0 0 0 0 0 0 0 0 0 0 0 0 0 0 0 3 7 3 8 2 0 0 0 0 1
0 0 0 0 0 0 0 0 0 0 0 0 0 0 0 0 0 0 0 0 0 0 0 0 0 0 0 0 0 0 0 0 0 0 0 0 0 0 0 1 0 2 4 0
0 0 0 0 0 0 0 0 0 0 0 0 0 0 0 0 0 0 0 0 0 0 0 0 0 0 0 0 0 0 0 0 0 0 0 0 0 0 0 0 0 0 0 0
0 0 0 0 0 0 0 0 0 0 0 0 0 0 0 0 0 0 0 0 0 0 0 0 0 0 0 0 0 0 0 0 1 0 0 0 0 0 0 0 0 0 0 0
0 0 0 0 0 0 0 0 0 0 0 0 0 0 0 0 0 0 0 0 0 0 0 0 0 0 0 0 0 0 0 0 0 0 2 0 0 0 0 0 0 0 0 0

GFSNGP_con_sbcape_033.txt.gz
CAPE
0 0 0 0 0 0 0 0 0 0 0 0 0 0 0 0 0 0 0 0 26 142 822 977 1061 1173 1072 1067 1346 1406 1696 1784 2076 2293 2390 2352 2402 2421 2406 2447 2426 2480 2515 2508
0 0 0 0 0 0 0 0 0 0 0 0 0 0 0 0 0 0 0 0 0 152 389 495 959 1147 1084 1189 1267 1597 1795 1766 2051 2405 2508 2438 2444 2449 2507 2490 2523 2523 2465 2491
0 0 0 0 0 0 0 0 0 0 0 0 0 0 0 0 0 0 0 0 0 0 79 554 580 1057 1088 1238 1324 1607 1861 1935 2050 2302 2499 2534 2536 2598 2615 2600 2584 2568 2399 2441
0 0 0 0 0 0 0 0 0 0 0 0 0 0 0 0 0 0 0 0 0 0 0 459 298 222 977 1182 1545 1711 1931 2069 2107 2212 2370 2402 2474 2514 2672 2701 2762 2758 2558 2456
0 0 0 0 0 0 0 0 0 0 0 0 0 0 0 0 0 0 0 0 0 0 0 225 484 841 1133 1312 1702 1913 2099 2189 2237 2026 2059 2440 2497 2535 2541 2567 2670 2809 2788 2778
0 0 0 0 0 0 0 0 0 0 0 0 0 0 0 0 0 0 0 0 0 0 0 0 293 408 1184 1208 1718 2114 2262 2285 2348 2407 2464 2603 2696 2727 2765 2729 2675 2588 2821 2957
0 0 0 0 0 7 3 0 0 0 0 0 0 0 0 0 0 0 0 0 0 0 140 426 422 681 1435 1619 1996 2118 2001 2178 2576 2830 2791 2771 2976 3018 3064 2828 2783 2711 2878 2983
0 0 0 0 0 0 17 1 0 0 0 0 0 0 76 0 0 1 428 201 0 0 22 149 727 1237 2023 2345 2119 2093 2419 2742 3206 3212 2602 2580 3125 2911 3093 2987 3434 3185 3082 2873
0 0 0 0 0 0 2 0 0 10 0 0 0 0 122 0 1099 1712 2212 2132 2267 2280 1588 993 1140 1614 1889 1789 1870 2257 2565 2998 3023 3134 3194 3418 3263 2955 2879 3391 3244 3134 3112 2794
31 0 0 0 0 0 62 56 64 38 18 1 1 273 114 1296 2542 2875 2163 2344 2437 2300 2001 1528 1583 1936 2167 2220 1989 2276 2572 3005 3172 3132 3175 3465 3141 2510 2912 2997 3122 3229 3307 2915
11 1 0 0 0 0 0 0 3 11 4 1 259 868 1336 1976 1757 1340 874 493 309 156 24 38 86 191 494 1716 2645 2354 2123 2183 2467 2735 2835 3361 3588 3480 3202 3435 3166 3272 3307 3010
0 0 56 0 0 40 130 22 29 0 2 28 223 534 1087 920 646 682 854 938 970 815 586 311 100 29 120 297 1100 2678 2669 2025 1655 1845 2234 2661 3096 1238 1 104 1902 2236 2391 2840
9 0 0 0 0 11 103 106 0 0 40 76 81 38 3 9 26 73 515 652 788 281 398 482 789 671 204 516 676 777 1028 1315 1024 1014 1692 1641 1540 1526 1461 244 0 29 683 22
34 25 8 0 0 169 119 80 0 6 38 78 43 29 19 33 44 140 349 458 492 685 371 51 45 180 727 621 637 568 562 4 417 843 623 699 835 1027 556 394 105 1 0 1
19 14 3 3 330 268 26 2 6 48 37 58 82 133 59 48 46 64 73 40 34 26 24 104 359 279 542 135 165 114 167 343 419 114 2 53 1 1 29 65 117 2 0 0
5 3 2 36 108 47 30 5 31 48 61 34 7 27 35 38 42 3 0 0 2 0 0 23 31 71 346 479 232 254 440 37 237 25 0 0 0 0 0 0 1 0 2 1
3 79 104 61 35 23 3 0 6 1 1 7 7 3 1 0 0 0 0 0 0 0 0 0 16 252 449 462 211 152 138 155 12 420 300 84 2 6 4 1 0 0 0 0
94 77 52 62 6 23 125 102 118 53 13 1 0 0 0 0 0 0 0 0 0 0 0 0 0 10 264 412 673 486 87 61 174 80 63 10 3 12 7 9 3 1 1 1
7 13 23 45 45 48 46 5 12 23 29 2 0 0 0 0 0 0 0 0 0 0 0 0 0 0 0 0 277 571 627 188 75 138 69 0 7 5 10 13 8 7 7 6
15 7 4 2 3 22 60 39 43 17 1 0 0 0 0 0 0 0 0 0 0 0 0 0 0 0 0 0 0 107 427 463 356 149 120 43 6 6 6 2 7 8 5 9
0 0 3 2 1 0 0 0 0 0 0 0 0 0 0 0 0 0 0 0 0 0 0 0 0 0 0 3 7 18 71 55 111 192 79 41 21 40 9 7 2 1 4 3
0 0 0 0 0 0 0 0 0 0 0 0 0 0 0 4 4 0 0 0 0 0 0 0 0 0 0 0 0 0 12 48 32 2 7 23 2 1 1 19 4 0 0 0
0 0 0 0 0 0 0 0 0 0 0 0 0 0 0 0 0 0 0 0 0 0 0 0 0 0 0 0 0 0 0 0 0 0 0 0 0 0 1 0 3 1 1 1
0 0 0 0 0 0 0 0 0 0 0 0 0 0 0 0 0 0 0 0 0 0 0 0 0 0 0 0 0 0 0 0 0 0 0 0 0 0 0 0 0 0 6 10
0 0 0 0 0 0 0 0 0 0 0 0 0 0 0 0 0 0 0 0 0 0 0 0 0 0 0 0 0 1 4 3 0 0 0 0 0 0 0 0 0 0 0 0
0 0 0 0 0 0 0 0 0 0 0 0 0 0 0 0 0 0 0 0 0 0 0 0 0 0 0 0 0 0 0 0 1 1 0 0 0 0 0 0 0 0 0 0
0 0 0 0 0 0 0 0 0 0 0 0 0 0 0 0 0 0 0 0 0 0 0 0 0 0 0 0 0 0 0 0 0 0 9 8 4 2 0 0 0 0 0 0

GFSNGP_con_sbcape_036.txt.gz
CAPE
0 0 0 0 0 0 0 0 0 0 0 0 0 0 0 0 0 0 0 0 0 46 239 785 1057 1511 2167 1633 1791 1754 2553 2074 2920 3338 3573 3566 3603 3831 3849 3990 3917 4033 4079 4075
0 0 0 0 0 0 0 0 0 0 0 0 0 0 0 0 0 0 0 0 0 0 377 1030 1259 1500 1513 2212 1901 1910 2802 2835 3057 3580 3804 3786 3821 3947 4116 4075 4023 4122 4080 4136
0 0 0 0 0 0 0 0 0 0 0 0 0 0 0 0 0 0 0 0 0 0 41 274 754 1263 1475 2190 1845 2442 2748 3169 3412 3840 3946 4072 4067 4156 4165 4118 4112 4183 4141 4188
0 0 0 0 0 0 0 0 0 0 0 0 0 0 0 0 0 0 0 0 0 0 0 0 86 16 604 1180 2779 2846 3115 3269 3522 3714 3959 4106 4202 4133 4185 4206 4106 4166 4177 4237
0 0 0 0 0 0 0 0 0 0 0 0 0 0 0 0 0 0 0 0 0 0 0 0 0 21 129 852 1693 2231 3184 3410 3595 3663 3345 3581 4190 4235 3907 3630 3882 3796 3602 4297
0 0 0 0 0 0 0 0 0 0 0 0 1 0 0 0 0 0 0 0 0 0 0 0 73 151 528 808 1505 2763 3130 2948 3472 3605 3758 3803 4166 4267 4126 3648 3559 3220 3372 4215
0 0 0 0 0 7 0 46 4 0 0 0 78 121 252 317 142 31 1 0 0 0 0 22 173 475 738 1030 1599 2161 2287 2358 3217 3801 4035 4031 4360 4279 4053 3934 3508 3975 4075 4145
0 0 0 0 0 0 0 0 0 0 0 0 0 0 1 158 452 449 230 0 18 218 52 291 1264 1433 1647 3068 2270 2482 2594 2594 3577 3937 3053 2919 4330 4429 4322 4074 4169 4242 3970 3428
0 0 0 0 0 0 0 0 0 0 0 0 0 0 0 83 682 858 224 197 921 341 638 1132 1959 1815 2224 3179 2795 2891 2993 3615 3406 3413 3388 3808 4137 4000 3523 3983 3246 3577 3525 3164
30 1 0 2 0 0 0 0 0 0 0 0 0 0 0 487 1352 770 1247 2063 2202 2321 1818 2288 2588 2583 2716 3077 2927 2929 3167 3371 3551 3720 3604 3512 3378 3501 3373 3342 3335 3104 3243 2916
38 24 21 12 1 0 0 0 0 0 0 0 0 0 1 1220 1659 1856 2592 2720 2789 2747 2410 2473 2668 2910 2983 2957 2846 3119 3297 3334 3457 3385 3512 3721 3822 3415 3345 3672 3028 3293 3434 3526
20 26 60 43 29 15 0 0 0 0 0 0 0 30 497 1569 1961 2382 2153 1667 1429 1236 1070 825 938 1223 1484 2295 3095 2869 2831 2683 2556 2582 3035 3201 3343 3592 1082 220 1 1 0 712
27 19 38 36 18 8 14 1 0 0 6 7 31 210 920 1155 1495 1527 1928 1914 1330 1128 1313 1585 1370 1388 1306 1535 1575 1720 1866 2224 2233 1334 1782 2060 2637 2939 3112 974 0 0 2 2
25 27 36 31 24 7 5 0 4 0 15 58 54 89 160 383 652 1160 1166 1261 1286 863 565 569 608 839 1071 1223 1087 1234 750 122 1059 1152 1320 1378 1114 1225 1336 1517 1642 2188 0 0
5 14 16 30 31 41 8 13 94 82 25 4 88 47 126 583 331 296 503 507 523 618 781 837 703 490 1105 545 1054 1117 1068 918 485 657 723 492 237 3 2 3 5 4 4 1
8 8 20 22 22 4 0 135 125 28 35 23 87 53 214 74 17 6 1 0 0 1 27 353 680 861 488 986 1035 949 635 79 270 529 588 287 369 165 6 6 1 0 1 0
1 15 18 18 1 1 61 107 31 7 35 2 1 25 17 7 0 0 0 0 0 0 0 0 15 702 904 837 686 641 601 408 73 629 488 57 80 161 148 20 0 4 0 0
8 11 48 43 61 55 67 67 43 31 19 20 14 2 0 1 2 2 0 0 0 0 0 0 0 55 244 747 733 727 614 665 462 333 266 100 67 46 31 54 14 11 18 1
9 6 3 4 14 39 51 26 35 21 12 3 6 3 0 0 0 0 0 0 0 0 0 0 0 0 4 0 354 681 668 673 717 531 243 0 91 93 23 9 6 10 10 17
5 4 0 0 1 3 7 13 12 9 11 10 6 4 39 5 0 0 0 0 1 0 0 0 0 0 0 13 5 509 756 674 529 225 149 277 176 10 4 2 5 8 10 19
2 2 2 4 4 3 2 2 0 3 3 1 0 0 0 0 0 0 0 0 0 0 0 0 0 0 0 0 8 146 152 125 110 183 263 231 161 73 74 52 8 5 1 3
0 0 0 0 0 0 0 1 2 0 0 0 0 5 16 1 0 0 0 0 0 0 0 0 0 0 0 0 2 5 13 21 6 1 1 8 26 109 106 77 76 56 63 85
0 0 0 0 0 0 0 0 0 0 0 0 0 0 0 0 0 0 0 0 0 0 0 0 0 0 0 0 0 0 0 0 1 2 0 0 0 0 0 0 1 9 9 9
0 0 0 0 0 0 0 0 0 0 0 0 0 0 0 0 0 0 0 0 0 0 0 0 0 0 0 0 0 0 0 0 0 0 0 0 0 0 0 0 0 0 0 1
0 0 0 0 0 0 0 0 0 0 0 0 0 0 0 0 0 0 0 0 0 0 0 0 0 0 0 0 0 0 0 0 0 0 0 0 0 0 0 0 0 0 0 0
0 0 0 0 0 0 0 0 0 0 0 0 0 0 0 0 0 0 0 0 0 0 0 0 0 0 0 0 0 0 0 0 0 0 0 1 2 0 0 0 1 1 1 0
0 0 0 1 1 0 0 0 0 0 0 0 0 0 0 0 0 0 0 0 0 0 0 0 0 0 0 0 0 0 0 0 0 0 0 1 0 0 1 1 0 1 3 3